Overview Statistics Trail Chart Weather Telemetry Raw packets
 

This is the latest recevied weather packets stored in our database for station/object GBTWP-2. If no packets are shown the sender has not sent any weather packets the latest 10 day(s).

<< 67 68 69 70 71 72 73 >>
Time Temp. Humidity Pressure Rain* Wind** Luminosity Snow
1788205020 24.44° C 82% 1018.6 hPa 0 mm - 133 W/m² -
1788204720 24.44° C 83% 1018.6 hPa 0 mm - 260 W/m² -
1788204421 23.89° C 84% 1018.5 hPa 0 mm - 221 W/m² -
1788204120 23.89° C 85% 1018.6 hPa 0 mm - 392 W/m² -
1788203820 23.89° C 86% 1018.8 hPa 0 mm - 288 W/m² -
1788203517 23.89° C 86% 1018.9 hPa 0 mm - 481 W/m² -
1788203220 23.33° C 88% 1019 hPa 0 mm - 537 W/m² -
1788202920 22.78° C 88% 1019.3 hPa 0 mm - 162 W/m² -
1788202620 22.78° C 89% 1019.3 hPa 0 mm - 148 W/m² -
1788202320 22.78° C 89% 1019.3 hPa 0 mm - 146 W/m² -
1788202020 23.33° C 89% 1019.3 hPa 0 mm - 194 W/m² -
1788201720 23.33° C 89% 1019.3 hPa 0 mm - 185 W/m² -
1788201418 23.33° C 89% 1019.3 hPa 0 mm - 141 W/m² -
1788201120 23.33° C 90% 1019.3 hPa 0 mm - 145 W/m² -
1788200820 22.78° C 90% 1019.4 hPa 0 mm - 112 W/m² -
1788200520 23.33° C 90% 1019.3 hPa 0 mm - 56 W/m² -
1788200220 23.33° C 90% 1019.5 hPa 0 mm - 48 W/m² -
1788199920 23.33° C 90% 1019.5 hPa 0 mm - 56 W/m² -
1788199620 23.33° C 89% 1019.4 hPa 0 mm - 72 W/m² -
1788199320 23.33° C 89% 1019.2 hPa 0 mm - 99 W/m² -
1788199020 23.33° C 89% 1019.1 hPa 0 mm - 81 W/m² -
1788198720 23.33° C 88% 1018.9 hPa 0 mm - 69 W/m² -
1788198420 23.33° C 90% 1018.8 hPa 0 mm - 160 W/m² -
1788198120 23.33° C 90% 1018.7 hPa 0 mm - 203 W/m² -
1788197820 23.33° C 90% 1018.6 hPa 0 mm - 184 W/m² -

* Rain latest hour (hover to see other rain measurements)
** Current wind speed in m/s (hover to see current wind gust speed)